Weather History for CWRU - November, 2012

Change the Weather History Date:

Monday, November 5, 2012

  Actual Average Record
Temperature  
Mean Temperature 49 °F -  
Max Temperature 51 °F - - ()
Min Temperature 47 °F - - ()
Degree Days  
Heating Degree Days 16    
Moisture  
Dew Point 42 °F    
Average Humidity 77    
Maximum Humidity 87    
Minimum Humidity 59    
Precipitation  
Precipitation 0.04 in - - ()
Sea Level Pressure  
Sea Level Pressure 30.35 in    
Wind  
Wind Speed 7 mph ()    
Max Wind Speed 13 mph    
Max Gust Speed 26 mph    
T = Trace of Precipitation, MM = Missing Value Source: Averaged Metar Reports

Daily Weather History Graph

Daily Weather History Graph

Search for Another Location

Airport or City:

Trip Planner

Search our weather history database for the weather conditions in past years. The results will help you decide how hot, cold, wet, or windy it might be!

Date:

Astronomy

Nov. 05, 2012 Rise Set
Actual Time 7:29 AM PST 5:00 PM PST
Civil Twilight 6:54 AM PST 5:35 PM PST
Nautical Twilight 6:16 AM PST 6:13 PM PST
Astronomical Twilight 5:38 AM PST 6:51 PM PST
Moon 10:46 PM PST (11/5) 12:53 PM PST (11/5)
Length of Visible Light 10h 40m
Length of Day
9h 31m
Waning Gibbous, 62% of the Moon is Illuminated
Nov 5
Waning Gibbous
Nov 6
Last Quarter
Nov 13
New
Nov 20
First Quarter
Nov 28
Full

Hourly Weather History & Observations

Time (PST) Temp. Dew Point Humidity Pressure Visibility Wind Dir Wind Speed Gust Speed Precip Events Conditions
12:00 AM 49.5 °F 45.9 °F 87% 30.30 in - South 6.9 mph - 0.03 in   Unknown
1:00 AM 48.4 °F 44.4 °F 86% 30.32 in - SSW 12.7 mph 26.5 mph N/A   Unknown
3:00 AM 49.8 °F 44.2 °F 81% 30.35 in - SSW 5.8 mph - N/A   Unknown
4:00 AM 48 °F 43 °F 77% 30.36 in - North 2.3 mph - -  
4:00 AM 48.4 °F 43.2 °F 82% 30.36 in - North 2.3 mph - N/A   Unknown
5:00 AM 48.7 °F 42.6 °F 79% 30.38 in - West 8.1 mph - N/A   Unknown
6:00 AM 48.0 °F 43.3 °F 84% 30.40 in - NNE 3.5 mph - N/A   Unknown
7:00 AM 48.0 °F 42.4 °F 81% 30.40 in - SE 5.8 mph - N/A   Unknown
8:00 AM 47.3 °F 42.8 °F 84% 30.42 in - ESE 10.4 mph - N/A   Unknown
9:00 AM 47.5 °F 42.6 °F 83% 30.42 in - ESE 11.5 mph - N/A   Unknown
10:00 AM 49 °F 42 °F 69% 30.42 in - ESE 11.5 mph - -  
10:00 AM 48.9 °F 42.1 °F 77% 30.42 in - ESE 11.5 mph - N/A   Unknown
11:00 AM 49.3 °F 43.9 °F 82% 30.43 in - ESE 11.5 mph - N/A   Unknown
12:00 PM 49.6 °F 43.9 °F 81% 30.40 in - ESE 11.5 mph - N/A   Unknown
1:00 PM 49.1 °F 43.0 °F 79% 30.40 in - ESE 9.2 mph - N/A   Unknown
2:00 PM 49.1 °F 43.5 °F 81% 30.39 in - ESE 10.4 mph - N/A   Unknown
3:00 PM 48.7 °F 43.3 °F 82% 30.38 in - East 10.4 mph - N/A   Unknown
4:00 PM 49 °F 42 °F 67% 30.35 in - ESE 9.2 mph - -  
4:00 PM 49.3 °F 41.5 °F 75% 30.35 in - ESE 9.2 mph - N/A   Unknown
5:00 PM 49.1 °F 43.2 °F 80% 30.35 in - SE 5.8 mph - N/A   Unknown
6:00 PM 49.8 °F 38.5 °F 65% 30.31 in - East 3.5 mph - N/A   Unknown
7:00 PM 49.6 °F 37.6 °F 63% 30.29 in - SE 3.5 mph - N/A   Unknown
8:00 PM 49.6 °F 38.1 °F 65% 30.27 in - SE 3.5 mph - N/A   Unknown
9:00 PM 48.6 °F 41.5 °F 77% 30.26 in - SSW 3.5 mph - N/A   Unknown
10:00 PM 49 °F 39 °F 59% 30.25 in - SE 4.6 mph - -  
10:00 PM 48.6 °F 39.2 °F 70% 30.25 in - SE 4.6 mph - N/A   Unknown
11:00 PM 47.5 °F 41.4 °F 79% 30.21 in - North 4.6 mph - N/A   Unknown